Location: Cahas Mountain Overlook
(37.0833°N, 80.1000°W)
Time: 08:30:58
(UTC-04:00)

Explorer 7 - Pass Details

Date: 15 February 2026
Orbit: 430 x 540 km, 50.2° (Epoch: 14 March)

Event Time Altitude Azimuth Distance (km) Brightness Sun altitude
Rises 15:44:06 0° 232° (SW) 2,407 11.6 23.4°
Reaches altitude 10° 15:46:11 10° 232° (SW) 1,554 11.3 23.1°
Maximum altitude 15:49:41 86° 322° (NW) 458 6.8 22.5°
Drops below altitude 10° 15:53:20 10° 51° (NE) 1,620 8.7 21.9°
Sets 15:55:33 0° 52° (NE) 2,521 9.6 21.6°
